| time (UTC) | temp F | wind direction | speed MPH | gust MPH | rain 1hr in | rain 24hr in | rain mn in | humidity % | barometer mb |
| 20260505184024 | 52 | 45 | 1.0 | 5.0 | 0.00 | 0.23 | 0.23 | 88 | 1010.2 |
| 20260505183044 | 52 | 68 | 2.0 | 5.0 | 0.00 | 0.23 | 0.23 | 88 | 1010.3 |
| 20260505182024 | 52 | 68 | 2.0 | 7.0 | 0.00 | 0.23 | 0.23 | 88 | 1010.3 |
| 20260505181024 | 52 | 45 | 1.0 | 4.0 | 0.00 | 0.23 | 0.23 | 87 | 1010.4 |
| 20260505180024 | 52 | 68 | 2.0 | 6.0 | 0.00 | 0.23 | 0.23 | 87 | 1010.4 |
| 20260505175025 | 52 | 68 | 3.0 | 8.0 | 0.00 | 0.23 | 0.23 | 87 | 1010.4 |
| 20260505174024 | 52 | 45 | 2.0 | 6.0 | 0.00 | 0.23 | 0.23 | 87 | 1010.4 |
| 20260505173024 | 53 | 68 | 3.0 | 8.0 | 0.00 | 0.23 | 0.23 | 87 | 1010.5 |
| 20260505172024 | 53 | 68 | 2.0 | 8.0 | 0.00 | 0.23 | 0.23 | 87 | 1010.5 |
| 20260505171024 | 53 | 90 | 4.0 | 9.0 | 0.00 | 0.23 | 0.23 | 87 | 1010.6 |
| 20260505170044 | 53 | 0.0 | 0.0 | 0.00 | 0.23 | 0.23 | 87 | 1010.6 | |
| 20260505165024 | 53 | 68 | 3.0 | 10.0 | 0.00 | 0.23 | 0.23 | 87 | 1010.5 |
| 20260505164044 | 53 | 45 | 1.0 | 7.0 | 0.00 | 0.23 | 0.23 | 87 | 1010.7 |
| 20260505163024 | 53 | 45 | 3.0 | 10.0 | 0.00 | 0.23 | 0.23 | 87 | 1010.6 |
| 20260505162024 | 53 | 45 | 3.0 | 8.0 | 0.00 | 0.23 | 0.23 | 88 | 1010.7 |
| 20260505161024 | 53 | 68 | 1.0 | 6.0 | 0.00 | 0.23 | 0.23 | 88 | 1010.8 |
| 20260505153044 | 52 | 45 | 1.0 | 5.0 | 0.00 | 0.23 | 0.23 | 88 | 1011.0 |
| 20260505152044 | 53 | 0.0 | 3.0 | 0.00 | 0.23 | 0.23 | 88 | 1011.0 | |
| 20260505151024 | 53 | 45 | 1.0 | 4.0 | 0.00 | 0.23 | 0.23 | 87 | 1011.1 |
| 20260505125024 | 52 | 45 | 4.0 | 9.0 | 0.00 | 0.23 | 0.23 | 92 | 1011.5 |
| 20260505124024 | 52 | 68 | 6.0 | 11.0 | 0.00 | 0.23 | 0.23 | 92 | 1011.6 |
| 20260505123024 | 52 | 68 | 4.0 | 11.0 | 0.00 | 0.23 | 0.23 | 92 | 1011.4 |
| 20260505122023 | 52 | 45 | 4.0 | 9.0 | 0.00 | 0.23 | 0.23 | 93 | 1011.5 |
| 20260505121023 | 52 | 68 | 5.0 | 10.0 | 0.00 | 0.23 | 0.23 | 94 | 1011.6 |
| 20260505120024 | 51 | 45 | 3.0 | 10.0 | 0.00 | 0.23 | 0.23 | 94 | 1011.6 |
| 20260505115044 | 51 | 45 | 3.0 | 10.0 | 0.00 | 0.23 | 0.23 | 94 | 1011.5 |
| 20260505114024 | 51 | 68 | 2.0 | 6.0 | 0.00 | 0.23 | 0.23 | 95 | 1011.6 |
| 20260505113025 | 51 | 45 | 3.0 | 7.0 | 0.00 | 0.23 | 0.23 | 95 | 1011.7 |
| 20260505112025 | 51 | 23 | 3.0 | 9.0 | 0.00 | 0.23 | 0.23 | 95 | 1011.7 |
| 20260505111025 | 50 | 45 | 2.0 | 5.0 | 0.00 | 0.23 | 0.23 | 96 | 1011.7 |
| 20260505102026 | 50 | 45 | 4.0 | 11.0 | 0.02 | 0.23 | 0.23 | 96 | 1011.6 |
| 20260505101025 | 51 | 45 | 2.0 | 5.0 | 0.02 | 0.23 | 0.23 | 96 | 1011.8 |
| 20260505100106 | 51 | 0 | 4.0 | 10.0 | 0.02 | 0.23 | 0.23 | 96 | 1011.8 |
| 20260505095025 | 51 | 0 | 5.0 | 10.0 | 0.02 | 0.22 | 0.22 | 97 | 1011.9 |
| 20260505094025 | 50 | 23 | 4.0 | 9.0 | 0.02 | 0.21 | 0.21 | 96 | 1011.8 |
| 20260505093105 | 51 | 23 | 3.0 | 9.0 | 0.02 | 0.21 | 0.21 | 96 | 1011.9 |
| 20260505092025 | 51 | 23 | 2.0 | 9.0 | 0.03 | 0.21 | 0.21 | 97 | 1011.8 |
| 20260505091025 | 51 | 45 | 2.0 | 7.0 | 0.03 | 0.20 | 0.20 | 97 | 1011.8 |
| 20260505090025 | 50 | 0 | 3.0 | 8.0 | 0.04 | 0.20 | 0.20 | 96 | 1011.7 |
| 20260505085025 | 50 | 338 | 4.0 | 10.0 | 0.03 | 0.20 | 0.20 | 96 | 1011.7 |
| 20260505084025 | 50 | 0 | 3.0 | 8.0 | 0.04 | 0.20 | 0.20 | 97 | 1011.7 |
| 20260505083025 | 50 | 0 | 4.0 | 9.0 | 0.03 | 0.19 | 0.19 | 96 | 1011.7 |
| 20260505082105 | 50 | 338 | 2.0 | 7.0 | 0.03 | 0.18 | 0.18 | 96 | 1011.5 |
| 20260505081025 | 50 | 0 | 1.0 | 4.0 | 0.02 | 0.17 | 0.17 | 96 | 1011.6 |
| 20260505080045 | 50 | 0 | 1.0 | 5.0 | 0.02 | 0.17 | 0.17 | 96 | 1011.5 |
| 20260505075025 | 50 | 45 | 2.0 | 8.0 | 0.03 | 0.17 | 0.17 | 96 | 1011.4 |
| 20260505074025 | 50 | 0.0 | 3.0 | 0.03 | 0.16 | 0.16 | 96 | 1011.4 | |
| 20260505073025 | 50 | 0 | 1.0 | 7.0 | 0.03 | 0.16 | 0.16 | 96 | 1011.4 |
| 20260505072025 | 50 | 68 | 2.0 | 6.0 | 0.02 | 0.15 | 0.15 | 96 | 1011.5 |
| 20260505071025 | 50 | 0 | 2.0 | 6.0 | 0.03 | 0.15 | 0.15 | 96 | 1011.6 |
| 20260505070025 | 50 | 0 | 2.0 | 5.0 | 0.02 | 0.14 | 0.14 | 96 | 1011.5 |
| 20260505065045 | 50 | 0 | 3.0 | 8.0 | 0.02 | 0.13 | 0.13 | 96 | 1011.5 |
| 20260505064205 | 50 | 23 | 2.0 | 9.0 | 0.02 | 0.13 | 0.13 | 96 | 1011.5 |
| 20260505063025 | 50 | 45 | 2.0 | 8.0 | 0.02 | 0.13 | 0.13 | 96 | 1011.5 |
| 20260505062045 | 50 | 45 | 2.0 | 9.0 | 0.03 | 0.13 | 0.13 | 96 | 1011.5 |
| 20260505061025 | 50 | 45 | 2.0 | 7.0 | 0.04 | 0.12 | 0.12 | 96 | 1011.5 |
| 20260505060025 | 50 | 45 | 2.0 | 5.0 | 0.06 | 0.12 | 0.12 | 95 | 1011.6 |
| 20260505055025 | 50 | 23 | 1.0 | 3.0 | 0.07 | 0.12 | 0.12 | 95 | 1011.7 |
| 20260505054025 | 50 | 23 | 2.0 | 8.0 | 0.07 | 0.11 | 0.11 | 95 | 1011.7 |
| 20260505053025 | 50 | 0 | 2.0 | 10.0 | 0.06 | 0.10 | 0.10 | 95 | 1011.7 |
| 20260505052045 | 51 | 0.0 | 0.0 | 0.07 | 0.09 | 0.09 | 95 | 1011.6 | |
| 20260505051025 | 51 | 0.0 | 0.0 | 0.07 | 0.08 | 0.08 | 95 | 1011.5 | |
| 20260505041024 | 51 | 0.0 | 0.0 | 0.01 | 0.01 | 0.01 | 93 | 1011.6 | |
| 20260505040025 | 51 | 0.0 | 0.0 | 0.01 | 0.01 | 0.01 | 93 | 1011.7 | |
| 20260505035045 | 51 | 0 | 1.0 | 5.0 | 0.01 | 0.01 | 0.01 | 92 | 1011.7 |
| 20260505034025 | 51 | 0 | 1.0 | 4.0 | 0.01 | 0.01 | 0.01 | 92 | 1011.8 |
| 20260505033105 | 51 | 0.0 | 2.0 | 0.00 | 0.00 | 0.00 | 91 | 1011.7 | |
| 20260505032025 | 51 | 0.0 | 3.0 | 0.00 | 0.00 | 0.00 | 90 | 1011.8 | |
| 20260505031024 | 51 | 0.0 | 1.0 | 0.00 | 0.00 | 0.00 | 90 | 1011.8 | |
| 20260505030025 | 51 | 0.0 | 4.0 | 0.00 | 0.00 | 0.00 | 90 | 1011.9 | |
| 20260505025025 | 51 | 0.0 | 2.0 | 0.00 | 0.00 | 0.00 | 90 | 1011.9 | |
| 20260505024024 | 51 | 0.0 | 0.0 | 0.00 | 0.00 | 0.00 | 90 | 1012.0 | |
| 20260505023025 | 51 | 0.0 | 3.0 | 0.00 | 0.00 | 0.00 | 89 | 1011.9 | |
| 20260505022105 | 51 | 0.0 | 2.0 | 0.00 | 0.00 | 0.00 | 89 | 1012.0 | |
| 20260505021024 | 51 | 0.0 | 3.0 | 0.00 | 0.00 | 0.00 | 89 | 1012.1 | |
| 20260505020025 | 51 | 0.0 | 1.0 | 0.00 | 0.00 | 0.00 | 89 | 1012.1 | |
| 20260505015025 | 51 | 0.0 | 3.0 | 0.00 | 0.00 | 0.00 | 89 | 1012.0 | |
| 20260505014025 | 51 | 0.0 | 0.0 | 0.00 | 0.00 | 0.00 | 90 | 1012.1 | |
| 20260505013024 | 51 | 0.0 | 1.0 | 0.00 | 0.00 | 0.00 | 90 | 1012.2 | |
| 20260505012025 | 51 | 0.0 | 2.0 | 0.00 | 0.00 | 0.00 | 90 | 1012.3 | |
| 20260505011105 | 51 | 0.0 | 3.0 | 0.00 | 0.00 | 0.00 | 91 | 1012.4 | |
| 20260505010025 | 52 | 0 | 1.0 | 3.0 | 0.00 | 0.00 | 0.00 | 92 | 1012.5 |
| 20260505005024 | 52 | 0.0 | 2.0 | 0.00 | 0.00 | 0.00 | 92 | 1012.6 | |
| 20260505004024 | 52 | 0.0 | 0.0 | 0.00 | 0.00 | 0.00 | 92 | 1012.7 | |
| 20260505003025 | 52 | 0.0 | 0.0 | 0.00 | 0.00 | 0.00 | 92 | 1012.6 | |
| 20260505002024 | 52 | 0.0 | 0.0 | 0.00 | 0.00 | 0.00 | 93 | 1012.7 | |
| 20260505001024 | 52 | 0.0 | 1.0 | 0.00 | 0.00 | 0.00 | 93 | 1012.7 | |
| 20260505000024 | 52 | 0.0 | 2.0 | 0.00 | 0.00 | 0.00 | 93 | 1012.7 | |
| 20260504235024 | 52 | 0.0 | 1.0 | 0.00 | 0.00 | 0.00 | 93 | 1012.7 | |
| 20260504234024 | 52 | 0.0 | 2.0 | 0.00 | 0.00 | 0.00 | 93 | 1012.8 | |
| 20260504233024 | 52 | 0.0 | 2.0 | 0.00 | 0.00 | 0.00 | 94 | 1012.9 | |
| 20260504232024 | 52 | 0.0 | 2.0 | 0.00 | 0.00 | 0.00 | 94 | 1012.8 | |
| 20260504231024 | 51 | 0.0 | 1.0 | 0.00 | 0.00 | 0.00 | 93 | 1012.9 | |
| 20260504230024 | 51 | 23 | 1.0 | 3.0 | 0.00 | 0.00 | 0.00 | 93 | 1013.0 |
| 20260504225024 | 51 | 0.0 | 2.0 | 0.00 | 0.00 | 0.00 | 93 | 1013.0 | |
| 20260504224024 | 51 | 0.0 | 2.0 | 0.00 | 0.00 | 0.00 | 93 | 1013.0 | |
| 20260504223024 | 51 | 0.0 | 3.0 | 0.00 | 0.00 | 0.00 | 93 | 1013.0 | |
| 20260504222044 | 51 | 0.0 | 2.0 | 0.00 | 0.00 | 0.00 | 93 | 1013.2 | |
| 20260504221024 | 51 | 0.0 | 2.0 | 0.00 | 0.00 | 0.00 | 92 | 1013.1 | |
| 20260504220024 | 51 | 0.0 | 2.0 | 0.00 | 0.00 | 0.00 | 92 | 1013.2 | |
| 20260504215024 | 51 | 0.0 | 2.0 | 0.00 | 0.00 | 0.00 | 92 | 1013.2 | |
| 20260504214024 | 51 | 0 | 1.0 | 3.0 | 0.00 | 0.00 | 0.00 | 92 | 1013.2 |
| 20260504213024 | 51 | 23 | 1.0 | 2.0 | 0.00 | 0.00 | 0.00 | 92 | 1013.2 |
| 20260504212024 | 51 | 0 | 2.0 | 4.0 | 0.00 | 0.00 | 0.00 | 91 | 1013.2 |
| 20260504211104 | 51 | 0 | 2.0 | 4.0 | 0.00 | 0.00 | 0.00 | 91 | 1013.3 |
| 20260504210024 | 51 | 0 | 1.0 | 3.0 | 0.00 | 0.00 | 0.00 | 91 | 1013.2 |
| 20260504205044 | 52 | 0 | 2.0 | 4.0 | 0.00 | 0.00 | 0.00 | 91 | 1013.3 |
| 20260504204024 | 52 | 0 | 1.0 | 4.0 | 0.00 | 0.00 | 0.00 | 91 | 1013.3 |
| 20260504203024 | 52 | 0 | 2.0 | 3.0 | 0.00 | 0.00 | 0.00 | 90 | 1013.3 |
| 20260504202024 | 52 | 0.0 | 1.0 | 0.00 | 0.00 | 0.00 | 89 | 1013.3 | |
| 20260504201024 | 53 | 0.0 | 1.0 | 0.00 | 0.00 | 0.00 | 88 | 1013.3 | |
| 20260504200024 | 54 | 0.0 | 1.0 | 0.00 | 0.00 | 0.00 | 88 | 1013.1 | |
| 20260504195023 | 54 | 45 | 1.0 | 2.0 | 0.00 | 0.00 | 0.00 | 88 | 1013.1 |
| 20260504194024 | 54 | 0.0 | 2.0 | 0.00 | 0.00 | 0.00 | 87 | 1013.1 | |
| 20260504193024 | 54 | 0.0 | 2.0 | 0.00 | 0.00 | 0.00 | 87 | 1013.2 | |
| 20260504192023 | 55 | 0.0 | 1.0 | 0.00 | 0.00 | 0.00 | 86 | 1013.2 | |
| 20260504191023 | 55 | 0.0 | 1.0 | 0.00 | 0.00 | 0.00 | 85 | 1013.1 | |
| 20260504190023 | 56 | 0.0 | 1.0 | 0.00 | 0.00 | 0.00 | 84 | 1013.1 | |
| 20260504185024 | 57 | 0.0 | 1.0 | 0.00 | 0.00 | 0.00 | 83 | 1013.1 |